Regional Weather Roundup
Issued by NWS

Home | Current Version | Previous Version | Graphics & Text | Print | Product List | Glossary On
Versions: 1 2 3 4 5 6 7 8 9 10 11 12 13 14 15 16 17 18 19 20 21 22 23 24 25 26 27 28 29 30 31 32 33 34 35 36 37 38 39 40 41 42 43 44 45 46 47 48 49 50
000
ASUS43 KLSX 020807
RWRMO

WEATHER SUMMARY FOR MISSOURI
NATIONAL WEATHER SERVICE SPRINGFIELD MO
300 AM CDT WED SEP 02 2015

NOTE: "FAIR" INDICATES FEW OR NO CLOUDS BELOW 12,000 FEET WITH NO
       SIGNIFICANT WEATHER AND/OR OBSTRUCTIONS TO VISIBILITY.
       CURRENT SKY AND/OR WEATHER CONDITIONS ARE NOT AVAILABLE FOR
       CHILLICOTHE AND FARMINGTON.

MOZ001>031-035>038-043-044-053-054-020900-
...NORTHERN AND WESTERN MISSOURI...

CITY           SKY/WX    TMP DP  RH WIND       PRES   REMARKS
KANSAS CTY INT PTCLDY    72  65  78 S9        29.98F
KANSAS C DTWN  CLEAR     77  65  66 S12       29.97F
LEE`S SUMMIT   CLEAR     73  64  73 S9        30.00F
ST JOSEPH      LGT RAIN  74  68  81 SW5       29.98S
CHILLICOTHE      N/A     69  67  93 CALM      30.01S
KIRKSVILLE     CLEAR     73  67  81 S8        30.02F

$$
MOZ066>068-077>081-088>096-101>105-020900-
...SOUTHWEST MISSOURI...

CITY           SKY/WX    TMP DP  RH WIND       PRES   REMARKS
SPRINGFIELD    CLEAR     72  66  81 S9        30.07S
JOPLIN         CLEAR     73  66  78 S10       30.04S

$$
MOZ032>034-039>042-045>050-055>058-069>072-020900-
...CENTRAL MISSOURI...

CITY           SKY/WX    TMP DP  RH WIND       PRES   REMARKS
COLUMBIA       CLEAR     71  69  93 S8        30.04F
JEFFERSON CITY CLEAR     74  69  85 CALM      30.04S
ROLLA          CLEAR     73  69  87 S10       30.07S
SEDALIA        CLEAR     72  68  87 S7        30.03F
WHITEMAN AFB   CLEAR     71  68  90 S7        30.00F
OSAGE BEACH    CLEAR     72  66  83 S7        30.06S

$$
MOZ051-052-059>065-020900-
...EAST CENTRAL MISSOURI...

CITY           SKY/WX    TMP DP  RH WIND       PRES   REMARKS
ST LOUIS INTL  CLEAR     78  68  71 CALM      30.06F
SPIRIT OF STL  CLEAR     71  70  96 CALM      30.05S
ST CHARLES     CLEAR     71  70  96 E3        30.05S

$$
MOZ072>076-082>087-097>100-106>115-020900-
...SOUTH CENTRAL AND SOUTHEAST MISSOURI...

CITY           SKY/WX    TMP DP  RH WIND       PRES   REMARKS
CAPE GIRARDEAU PTCLDY    68  66  93 CALM      30.07S
FARMINGTON     CLEAR     70  68  94 W3        30.12R
POPLAR BLUFF   PTCLDY    68  67  96 CALM      30.06S FOG
WEST PLAINS    CLEAR     70  66  87 CALM      30.11F

$$


USA.gov is the U.S. government's official web portal to all federal, state and local government web resources and services.